Location: Navalmoral
(40.4603°N, 4.7686°W)
Time: 10:44:24
(UTC+00:00)

SL-8 R/B - Pass Details

Date: 05 August 2024
Orbit: 651 x 661 km, 48.4° (Epoch: 19 September)

Event Time Altitude Azimuth Distance (km) Brightness Sun altitude
Rises 21:06:01 0° 300° (WNW) 2,982 8.7 -16.6°
Reaches altitude 10° 21:08:26 10° 305° (NW) 2,071 7.6 -16.9°
Maximum altitude 21:13:06 52° 22° (NNE) 822 4.2 -17.6°
Enters shadow 21:15:38 25° 88° (E) 1,324 4.8 -17.9°
